Starlink 31745

operational
NORAD ID: 60329 Int'l Des: 2024-136 Owner: SPXS Country: US Constellation: starlink
LEOCIRCULAR

关于 Starlink 31745

正在加载描述...

实时位置

正在加载3D地球...

即将过境

高度历史

Altitude vs Time

uPlot chart will show altitude changes over time

两行轨道根数

1 60329U 24136A 25260.95530865 .00001459 00000-0 61377-4 0 9999
2 60329 53.1587 158.3246 0000871 125.5180 234.5902 15.30193498 64422
Epoch: Sep 17, 2025 • Age: 23 hours

当前状态

高度 481.2 km
速度 7.63 km/s
星下点 -21.51°S, 26.3°E
发射日期 Aug 2, 2024
运行时间 1.1 years
类型 internet

技术详情

分类 Payload
质量 730.00 kg
干质量 700.00 kg
总质量 730.00 kg
长度 0.30 m
直径 4.10 m
跨度 29.00 m
形状 Box + pan
制造商 SPXS
平台类型 Starlink V2M
阶段状态 In Orbit
所有者/国家 SPXS/US

大型星座

Loading constellations...